User: anonymous   Login
Location: Ballingbuur
(53.0000°N, 5.7667°E)
Time: 08:37:48
(UTC+00:00)
Language:

Cosmos 1408 Rocket - Orbit

View from above orbital plane
View from above orbital plane
View from above satellite
View from above satellite

Ground track
Ground track

The orbit data is extracted from the following two-line orbital elements,

1 13553U 82092B   21065.82726965  .00000113  00000-0  10567-4 0  9995
2 13553  82.5680  48.1099 0020079 232.1623 174.4017 14.84263504 57481
Epoch (UTC): 06 March 2021 19:51:16
Eccentricity: 0.0020079
inclination: 82.5680°
perigee height: 602 km
apogee height: 630 km
right ascension of ascending node: 48.1099°
argument of perigee: 232.1623°
revolutions per day: 14.84263504
mean anomaly at epoch: 174.4017°
orbit number at epoch: 5748

The dashed part of the orbit path shows where the satellite is in the earth's shadow,  

DLR